User: anonymous
Location: Kailua
(21.4020°N, 157.7390°W)
Time: 21:00:17
(UTC-10:00)
Language:

Cosmos 2297 Rocket - Orbit

View from above orbital plane
View from above orbital plane
View from above satellite
View from above satellite

Ground track
Ground track

The orbit data is extracted from the following two-line orbital elements,

1 23405U 94077B   14245.46008725 -.00000206  00000-0 -81631-4 0  9396
2 23405 070.9832 197.1832 0001366 008.3729 106.8400 14.15105599 21395
Epoch (UTC): 02 September 2014 11:02:31
Eccentricity: 0.0001366
inclination: 70.9832°
perigee height: 841 km
apogee height: 843 km
right ascension of ascending node: 197.1832°
argument of perigee: 8.3729°
revolutions per day: 14.15105599
mean anomaly at epoch: 106.8400°
orbit number at epoch: 2139

The dashed part of the orbit path shows where the satellite is in the earth's shadow,  

DLR